Year,Month,Day,Hour,Minute,Value (Times are PST for temperature in C)
2011,05,23,00,00,9.70
2011,05,23,00,01,9.70
2011,05,23,00,02,9.70
2011,05,23,00,03,9.70
2011,05,23,00,04,9.70
2011,05,23,00,05,9.60
2011,05,23,00,06,9.60
2011,05,23,00,07,9.60
2011,05,23,00,08,9.50
2011,05,23,00,09,9.50
2011,05,23,00,10,9.50
2011,05,23,00,11,9.50
2011,05,23,00,12,9.50
2011,05,23,00,13,9.50
2011,05,23,00,14,9.50
2011,05,23,00,15,9.50
2011,05,23,00,16,9.50
2011,05,23,00,17,9.50
2011,05,23,00,18,9.50
2011,05,23,00,19,9.50
2011,05,23,00,20,9.50
2011,05,23,00,21,9.50
2011,05,23,00,22,9.50
2011,05,23,00,23,9.50
2011,05,23,00,24,9.50
2011,05,23,00,25,9.40
2011,05,23,00,26,9.40
2011,05,23,00,27,9.40
2011,05,23,00,28,9.40
2011,05,23,00,29,9.40
2011,05,23,00,30,9.40
2011,05,23,00,31,9.30
2011,05,23,00,32,9.30
2011,05,23,00,33,9.30
2011,05,23,00,34,9.30
2011,05,23,00,35,9.30
2011,05,23,00,36,9.30
2011,05,23,00,37,9.20
2011,05,23,00,38,9.20
2011,05,23,00,39,9.20
2011,05,23,00,40,9.20
2011,05,23,00,41,9.20
2011,05,23,00,42,9.20
2011,05,23,00,43,9.20
2011,05,23,00,44,9.20
2011,05,23,00,45,9.30
2011,05,23,00,46,9.30
2011,05,23,00,47,9.30
2011,05,23,00,48,9.30
2011,05,23,00,49,9.30
2011,05,23,00,50,9.30
2011,05,23,00,51,9.20
2011,05,23,00,52,9.20
2011,05,23,00,53,9.20
2011,05,23,00,54,9.20
2011,05,23,00,55,9.20
2011,05,23,00,56,9.20
2011,05,23,00,57,9.20
2011,05,23,00,58,9.20
2011,05,23,00,59,9.20
2011,05,23,01,00,9.20
2011,05,23,01,01,9.20
2011,05,23,01,02,9.20
2011,05,23,01,03,9.20
2011,05,23,01,04,9.20
2011,05,23,01,05,9.20
2011,05,23,01,06,9.20
2011,05,23,01,07,9.20
2011,05,23,01,08,9.20
2011,05,23,01,09,9.20
2011,05,23,01,10,9.20
2011,05,23,01,11,9.20
2011,05,23,01,12,9.20
2011,05,23,01,13,9.20
2011,05,23,01,14,9.10
2011,05,23,01,15,9.10
2011,05,23,01,16,9.10
2011,05,23,01,17,9.10
2011,05,23,01,18,9.10
2011,05,23,01,19,9.10
2011,05,23,01,20,9.10
2011,05,23,01,21,9.10
2011,05,23,01,22,9.10
2011,05,23,01,23,9.10
2011,05,23,01,24,9.10
2011,05,23,01,25,9.10
2011,05,23,01,26,9.10
2011,05,23,01,27,9.10
2011,05,23,01,28,9.00
2011,05,23,01,29,9.00
2011,05,23,01,30,9.00
2011,05,23,01,31,9.00
2011,05,23,01,32,9.00
2011,05,23,01,33,9.10
2011,05,23,01,34,9.10
2011,05,23,01,35,9.10
2011,05,23,01,36,9.00
2011,05,23,01,37,9.00
2011,05,23,01,38,9.00
2011,05,23,01,39,9.00
2011,05,23,01,40,9.00
2011,05,23,01,41,9.00
2011,05,23,01,42,9.00
2011,05,23,01,43,9.00
2011,05,23,01,44,9.00
2011,05,23,01,45,8.90
2011,05,23,01,46,8.90
2011,05,23,01,47,8.90
2011,05,23,01,48,8.90
2011,05,23,01,49,8.90
2011,05,23,01,50,8.80
2011,05,23,01,51,8.80
2011,05,23,01,52,8.80
2011,05,23,01,53,8.80
2011,05,23,01,54,8.80
2011,05,23,01,55,8.80
2011,05,23,01,56,8.70
2011,05,23,01,57,8.70
2011,05,23,01,58,8.70
2011,05,23,01,59,8.70
2011,05,23,02,00,8.70
2011,05,23,02,01,8.70
2011,05,23,02,02,8.70
2011,05,23,02,03,8.70
2011,05,23,02,04,8.70
2011,05,23,02,05,8.70
2011,05,23,02,06,8.70
2011,05,23,02,07,8.70
2011,05,23,02,08,8.70
2011,05,23,02,09,8.70
2011,05,23,02,10,8.70
2011,05,23,02,11,8.70
2011,05,23,02,12,8.60
2011,05,23,02,13,8.60
2011,05,23,02,14,8.60
2011,05,23,02,15,8.60
2011,05,23,02,16,8.60
2011,05,23,02,17,8.60
2011,05,23,02,18,8.60
2011,05,23,02,19,8.60
2011,05,23,02,20,8.60
2011,05,23,02,21,8.60
2011,05,23,02,22,8.50
2011,05,23,02,23,8.50
2011,05,23,02,24,8.50
2011,05,23,02,25,8.50
2011,05,23,02,26,8.50
2011,05,23,02,27,8.50
2011,05,23,02,28,8.50
2011,05,23,02,29,8.40
2011,05,23,02,30,8.40
2011,05,23,02,31,8.40
2011,05,23,02,32,8.40
2011,05,23,02,33,8.40
2011,05,23,02,34,8.40
2011,05,23,02,35,8.40
2011,05,23,02,36,8.40
2011,05,23,02,37,8.40
2011,05,23,02,38,8.40
2011,05,23,02,39,8.40
2011,05,23,02,40,8.30
2011,05,23,02,41,8.30
2011,05,23,02,42,8.30
2011,05,23,02,43,8.30
2011,05,23,02,44,8.30
2011,05,23,02,45,8.30
2011,05,23,02,46,8.30
2011,05,23,02,47,8.20
2011,05,23,02,48,8.20
2011,05,23,02,49,8.20
2011,05,23,02,50,8.20
2011,05,23,02,51,8.20
2011,05,23,02,52,8.20
2011,05,23,02,53,8.20
2011,05,23,02,54,8.20
2011,05,23,02,55,8.20
2011,05,23,02,56,8.20
2011,05,23,02,57,8.20
2011,05,23,02,58,8.20
2011,05,23,02,59,8.20
2011,05,23,03,00,8.20
2011,05,23,03,01,8.20
2011,05,23,03,02,8.10
2011,05,23,03,03,8.10
2011,05,23,03,04,8.10
2011,05,23,03,05,8.10
2011,05,23,03,06,8.10
2011,05,23,03,07,8.00
2011,05,23,03,08,8.00
2011,05,23,03,09,8.00
2011,05,23,03,10,8.00
2011,05,23,03,11,7.90
2011,05,23,03,12,7.90
2011,05,23,03,13,7.90
2011,05,23,03,14,7.90
2011,05,23,03,15,7.80
2011,05,23,03,16,7.80
2011,05,23,03,17,7.80
2011,05,23,03,18,7.80
2011,05,23,03,19,7.80
2011,05,23,03,20,7.80
2011,05,23,03,21,7.80
2011,05,23,03,22,7.70
2011,05,23,03,23,7.70
2011,05,23,03,24,7.70
2011,05,23,03,25,7.60
2011,05,23,03,26,7.60
2011,05,23,03,27,7.60
2011,05,23,03,28,7.60
2011,05,23,03,29,7.50
2011,05,23,03,30,7.50
2011,05,23,03,31,7.50
2011,05,23,03,32,7.40
2011,05,23,03,33,7.40
2011,05,23,03,34,7.40
2011,05,23,03,35,7.40
2011,05,23,03,36,7.30
2011,05,23,03,37,7.30
2011,05,23,03,38,7.30
2011,05,23,03,39,7.30
2011,05,23,03,40,7.30
2011,05,23,03,41,7.20
2011,05,23,03,42,7.20
2011,05,23,03,43,7.20
2011,05,23,03,44,7.10
2011,05,23,03,45,7.10
2011,05,23,03,46,7.00
2011,05,23,03,47,7.00
2011,05,23,03,48,6.90
2011,05,23,03,49,6.90
2011,05,23,03,50,6.80
2011,05,23,03,51,6.80
2011,05,23,03,52,6.80
2011,05,23,03,53,6.70
2011,05,23,03,54,6.70
2011,05,23,03,55,6.60
2011,05,23,03,56,6.60
2011,05,23,03,57,6.60
2011,05,23,03,58,6.50
2011,05,23,03,59,6.40
2011,05,23,04,00,6.40
2011,05,23,04,01,6.40
2011,05,23,04,02,6.40
2011,05,23,04,03,6.40
2011,05,23,04,04,6.40
2011,05,23,04,05,6.40
2011,05,23,04,06,6.40
2011,05,23,04,07,6.40
2011,05,23,04,08,6.40
2011,05,23,04,09,6.30
2011,05,23,04,10,6.30
2011,05,23,04,11,6.30
2011,05,23,04,12,6.30
2011,05,23,04,13,6.20
2011,05,23,04,14,6.20
2011,05,23,04,15,6.20
2011,05,23,04,16,6.20
2011,05,23,04,17,6.20
2011,05,23,04,18,6.20
2011,05,23,04,19,6.20
2011,05,23,04,20,6.20
2011,05,23,04,21,6.20
2011,05,23,04,22,6.10
2011,05,23,04,23,6.10
2011,05,23,04,24,6.10
2011,05,23,04,25,6.10
2011,05,23,04,26,6.00
2011,05,23,04,27,6.00
2011,05,23,04,28,6.00
2011,05,23,04,29,6.00
2011,05,23,04,30,6.00
2011,05,23,04,31,5.90
2011,05,23,04,32,5.90
2011,05,23,04,33,5.90
2011,05,23,04,34,5.90
2011,05,23,04,35,5.80
2011,05,23,04,36,5.80
2011,05,23,04,37,5.80
2011,05,23,04,38,5.70
2011,05,23,04,39,5.70
2011,05,23,04,40,5.70
2011,05,23,04,41,5.70
2011,05,23,04,42,5.70
2011,05,23,04,43,5.70
2011,05,23,04,44,5.70
2011,05,23,04,45,5.70
2011,05,23,04,46,5.60
2011,05,23,04,47,5.60
2011,05,23,04,48,5.60
2011,05,23,04,49,5.60
2011,05,23,04,50,5.60
2011,05,23,04,51,5.50
2011,05,23,04,52,5.50
2011,05,23,04,53,5.50
2011,05,23,04,54,5.50
2011,05,23,04,55,5.50
2011,05,23,04,56,5.50
2011,05,23,04,57,5.50
2011,05,23,04,58,5.50
2011,05,23,04,59,5.40
2011,05,23,05,00,5.40
2011,05,23,05,01,5.40
2011,05,23,05,02,5.40
2011,05,23,05,03,5.40
2011,05,23,05,04,5.40
2011,05,23,05,05,5.40
2011,05,23,05,06,5.40
2011,05,23,05,07,5.40
2011,05,23,05,08,5.30
2011,05,23,05,09,5.30
2011,05,23,05,10,5.30
2011,05,23,05,11,5.30
2011,05,23,05,12,5.30
2011,05,23,05,13,5.30
2011,05,23,05,14,5.30
2011,05,23,05,15,5.20
2011,05,23,05,16,5.20
2011,05,23,05,17,5.20
2011,05,23,05,18,5.10
2011,05,23,05,19,5.10
2011,05,23,05,20,5.10
2011,05,23,05,21,5.10
2011,05,23,05,22,5.10
2011,05,23,05,23,5.10
2011,05,23,05,24,5.10
2011,05,23,05,25,5.10
2011,05,23,05,26,5.10
2011,05,23,05,27,5.10
2011,05,23,05,28,5.10
2011,05,23,05,29,5.10
2011,05,23,05,30,5.10
2011,05,23,05,31,5.10
2011,05,23,05,32,5.10
2011,05,23,05,33,5.10
2011,05,23,05,34,5.10
2011,05,23,05,35,5.00
2011,05,23,05,36,4.90
2011,05,23,05,37,4.90
2011,05,23,05,38,4.90
2011,05,23,05,39,4.90
2011,05,23,05,40,4.90
2011,05,23,05,41,4.90
2011,05,23,05,42,4.90
2011,05,23,05,43,4.90
2011,05,23,05,44,4.90
2011,05,23,05,45,4.90
2011,05,23,05,46,4.90
2011,05,23,05,47,4.90
2011,05,23,05,48,4.90
2011,05,23,05,49,4.90
2011,05,23,05,50,5.10
2011,05,23,05,51,5.10
2011,05,23,05,52,5.10
2011,05,23,05,53,5.10
2011,05,23,05,54,5.10
2011,05,23,05,55,5.10
2011,05,23,05,56,5.10
2011,05,23,05,57,5.10
2011,05,23,05,58,5.10
2011,05,23,05,59,5.10
2011,05,23,06,00,5.10
2011,05,23,06,01,5.10
2011,05,23,06,02,5.10
2011,05,23,06,03,5.10
2011,05,23,06,04,5.10
2011,05,23,06,05,5.10
2011,05,23,06,06,5.10
2011,05,23,06,07,5.10
2011,05,23,06,08,5.10
2011,05,23,06,09,5.10
2011,05,23,06,10,5.20
2011,05,23,06,11,5.20
2011,05,23,06,12,5.30
2011,05,23,06,13,5.30
2011,05,23,06,14,5.30
2011,05,23,06,15,5.30
2011,05,23,06,16,5.30
2011,05,23,06,17,5.30
2011,05,23,06,18,5.50
2011,05,23,06,19,5.50
2011,05,23,06,20,5.60
2011,05,23,06,21,5.70
2011,05,23,06,22,5.80
2011,05,23,06,23,5.90
2011,05,23,06,24,6.00
2011,05,23,06,25,6.00
2011,05,23,06,26,6.10
2011,05,23,06,27,6.20
2011,05,23,06,28,6.20
2011,05,23,06,29,6.30
2011,05,23,06,30,6.30
2011,05,23,06,31,6.40
2011,05,23,06,32,6.40
2011,05,23,06,33,6.50
2011,05,23,06,34,6.60
2011,05,23,06,35,6.60
2011,05,23,06,36,6.70
2011,05,23,06,37,6.80
2011,05,23,06,38,6.90
2011,05,23,06,39,7.00
2011,05,23,06,40,7.00
2011,05,23,06,41,7.10
2011,05,23,06,42,7.20
2011,05,23,06,43,7.20
2011,05,23,06,44,7.30
2011,05,23,06,45,7.30
2011,05,23,06,46,7.40
2011,05,23,06,47,7.50
2011,05,23,06,48,7.60
2011,05,23,06,49,7.70
2011,05,23,06,50,7.80
2011,05,23,06,51,7.80
2011,05,23,06,52,7.90
2011,05,23,06,53,8.00
2011,05,23,06,54,8.00
2011,05,23,06,55,8.10
2011,05,23,06,56,8.20
2011,05,23,06,57,8.30
2011,05,23,06,58,8.30
2011,05,23,06,59,8.40
2011,05,23,07,00,8.50
2011,05,23,07,01,8.50
2011,05,23,07,02,8.60
2011,05,23,07,03,8.60
2011,05,23,07,04,8.60
2011,05,23,07,05,8.60
2011,05,23,07,06,8.60
2011,05,23,07,07,8.70
2011,05,23,07,08,8.70
2011,05,23,07,09,8.70
2011,05,23,07,10,8.80
2011,05,23,07,11,8.80
2011,05,23,07,12,8.90
2011,05,23,07,13,9.00
2011,05,23,07,14,9.00
2011,05,23,07,15,9.10
2011,05,23,07,16,9.30
2011,05,23,07,17,9.30
2011,05,23,07,18,9.40
2011,05,23,07,19,9.50
2011,05,23,07,20,9.50
2011,05,23,07,21,9.60
2011,05,23,07,22,9.70
2011,05,23,07,23,9.70
2011,05,23,07,24,9.80
2011,05,23,07,25,9.80
2011,05,23,07,26,9.90
2011,05,23,07,27,10.10
2011,05,23,07,28,10.10
2011,05,23,07,29,10.20
2011,05,23,07,30,10.30
2011,05,23,07,31,10.40
2011,05,23,07,32,10.50
2011,05,23,07,33,10.60
2011,05,23,07,34,10.60
2011,05,23,07,35,10.70
2011,05,23,07,36,10.80
2011,05,23,07,37,10.90
2011,05,23,07,38,10.90
2011,05,23,07,39,10.90
2011,05,23,07,40,10.90
2011,05,23,07,41,10.90
2011,05,23,07,42,10.90
2011,05,23,07,43,10.90
2011,05,23,07,44,10.90
2011,05,23,07,45,10.90
2011,05,23,07,46,10.90
2011,05,23,07,47,10.90
2011,05,23,07,48,10.90
2011,05,23,07,49,11.00
2011,05,23,07,50,11.10
2011,05,23,07,51,11.10
2011,05,23,07,52,11.20
2011,05,23,07,53,11.30
2011,05,23,07,54,11.40
2011,05,23,07,55,11.40
2011,05,23,07,56,11.40
2011,05,23,07,57,11.50
2011,05,23,07,58,11.60
2011,05,23,07,59,11.60
2011,05,23,08,00,11.60
2011,05,23,08,01,11.60
2011,05,23,08,02,11.60
2011,05,23,08,03,11.60
2011,05,23,08,04,11.40
2011,05,23,08,05,11.40
2011,05,23,08,06,11.40
2011,05,23,08,07,11.40
2011,05,23,08,08,11.30
2011,05,23,08,09,11.30
2011,05,23,08,10,11.20
2011,05,23,08,11,11.30
2011,05,23,08,12,11.30
2011,05,23,08,13,11.30
2011,05,23,08,14,11.40
2011,05,23,08,15,11.50
2011,05,23,08,16,11.60
2011,05,23,08,17,11.60
2011,05,23,08,18,11.70
2011,05,23,08,19,11.80
2011,05,23,08,20,11.90
2011,05,23,08,21,12.10
2011,05,23,08,22,12.20
2011,05,23,08,23,12.20
2011,05,23,08,24,12.30
2011,05,23,08,25,12.30
2011,05,23,08,26,12.40
2011,05,23,08,27,12.50
2011,05,23,08,28,12.50
2011,05,23,08,29,12.60
2011,05,23,08,30,12.60
2011,05,23,08,31,12.60
2011,05,23,08,32,12.60
2011,05,23,08,33,12.70
2011,05,23,08,34,12.70
2011,05,23,08,35,12.80
2011,05,23,08,36,12.80
2011,05,23,08,37,12.90
2011,05,23,08,38,12.90
2011,05,23,08,39,12.90
2011,05,23,08,40,12.80
2011,05,23,08,41,12.80
2011,05,23,08,42,12.80
2011,05,23,08,43,12.70
2011,05,23,08,44,12.70
2011,05,23,08,45,12.70
2011,05,23,08,46,12.70
2011,05,23,08,47,12.80
2011,05,23,08,48,12.80
2011,05,23,08,49,12.90
2011,05,23,08,50,13.00
2011,05,23,08,51,13.20
2011,05,23,08,52,13.20
2011,05,23,08,53,13.30
2011,05,23,08,54,13.30
2011,05,23,08,55,13.30
2011,05,23,08,56,13.40
2011,05,23,08,57,13.40
2011,05,23,08,58,13.40
2011,05,23,08,59,13.40
2011,05,23,09,00,13.30
2011,05,23,09,01,13.20
2011,05,23,09,02,13.20
2011,05,23,09,03,13.30
2011,05,23,09,04,13.30
2011,05,23,09,05,13.30
2011,05,23,09,06,13.30
2011,05,23,09,07,13.30
2011,05,23,09,08,13.30
2011,05,23,09,09,13.30
2011,05,23,09,10,13.40
2011,05,23,09,11,13.50
2011,05,23,09,12,13.60
2011,05,23,09,13,13.70
2011,05,23,09,14,13.70
2011,05,23,09,15,13.80
2011,05,23,09,16,13.80
2011,05,23,09,17,13.80
2011,05,23,09,18,13.70
2011,05,23,09,19,13.70
2011,05,23,09,20,13.80
2011,05,23,09,21,13.80
2011,05,23,09,22,13.80
2011,05,23,09,23,13.90
2011,05,23,09,24,14.00
2011,05,23,09,25,14.10
2011,05,23,09,26,14.20
2011,05,23,09,27,14.30
2011,05,23,09,28,14.30
2011,05,23,09,29,14.40
2011,05,23,09,30,14.40
2011,05,23,09,31,14.20
2011,05,23,09,32,14.20
2011,05,23,09,33,14.20
2011,05,23,09,34,14.20
2011,05,23,09,35,14.20
2011,05,23,09,36,14.20
2011,05,23,09,37,14.30
2011,05,23,09,38,14.30
2011,05,23,09,39,14.40
2011,05,23,09,40,14.50
2011,05,23,09,41,14.40
2011,05,23,09,42,14.40
2011,05,23,09,43,14.40
2011,05,23,09,44,14.20
2011,05,23,09,45,14.10
2011,05,23,09,46,14.10
2011,05,23,09,47,14.20
2011,05,23,09,48,14.30
2011,05,23,09,49,14.40
2011,05,23,09,50,14.40
2011,05,23,09,51,14.40
2011,05,23,09,52,14.40
2011,05,23,09,53,14.50
2011,05,23,09,54,14.60
2011,05,23,09,55,14.70
2011,05,23,09,56,14.80
2011,05,23,09,57,14.90
2011,05,23,09,58,15.00
2011,05,23,09,59,15.00
2011,05,23,10,00,15.10
2011,05,23,10,01,15.20
2011,05,23,10,02,15.10
2011,05,23,10,03,15.00
2011,05,23,10,04,14.80
2011,05,23,10,05,14.80
2011,05,23,10,06,14.80
2011,05,23,10,07,14.80
2011,05,23,10,08,14.80
2011,05,23,10,09,14.70
2011,05,23,10,10,14.60
2011,05,23,10,11,14.50
2011,05,23,10,12,14.40
2011,05,23,10,13,14.40
2011,05,23,10,14,14.50
2011,05,23,10,15,14.60
2011,05,23,10,16,14.70
2011,05,23,10,17,14.80
2011,05,23,10,18,14.80
2011,05,23,10,19,14.80
2011,05,23,10,20,14.80
2011,05,23,10,21,14.70
2011,05,23,10,22,14.60
2011,05,23,10,23,14.50
2011,05,23,10,24,14.40
2011,05,23,10,25,14.30
2011,05,23,10,26,14.20
2011,05,23,10,27,14.20
2011,05,23,10,28,14.00
2011,05,23,10,29,13.90
2011,05,23,10,30,13.80
2011,05,23,10,31,13.70
2011,05,23,10,32,13.70
2011,05,23,10,33,13.70
2011,05,23,10,34,13.70
2011,05,23,10,35,13.70
2011,05,23,10,36,13.70
2011,05,23,10,37,13.70
2011,05,23,10,38,13.70
2011,05,23,10,39,13.70
2011,05,23,10,40,13.70
2011,05,23,10,41,13.60
2011,05,23,10,42,13.60
2011,05,23,10,43,13.70
2011,05,23,10,44,13.70
2011,05,23,10,45,13.70
2011,05,23,10,46,13.70
2011,05,23,10,47,13.70
2011,05,23,10,48,13.70
2011,05,23,10,49,13.60
2011,05,23,10,50,13.60
2011,05,23,10,51,13.50
2011,05,23,10,52,13.50
2011,05,23,10,53,13.50
2011,05,23,10,54,13.50
2011,05,23,10,55,13.40
2011,05,23,10,56,13.30
2011,05,23,10,57,13.30
2011,05,23,10,58,13.20
2011,05,23,10,59,13.10
2011,05,23,11,00,13.10
2011,05,23,11,01,13.10
2011,05,23,11,02,13.10
2011,05,23,11,03,13.20
2011,05,23,11,04,13.20
2011,05,23,11,05,13.30
2011,05,23,11,06,13.30
2011,05,23,11,07,13.30
2011,05,23,11,08,13.40
2011,05,23,11,09,13.30
2011,05,23,11,10,13.30
2011,05,23,11,11,13.50
2011,05,23,11,12,13.50
2011,05,23,11,13,13.60
2011,05,23,11,14,13.70
2011,05,23,11,15,13.70
2011,05,23,11,16,13.80
2011,05,23,11,17,13.90
2011,05,23,11,18,14.10
2011,05,23,11,19,14.10
2011,05,23,11,20,14.00
2011,05,23,11,21,13.90
2011,05,23,11,22,13.90
2011,05,23,11,23,13.90
2011,05,23,11,24,14.00
2011,05,23,11,25,14.00
2011,05,23,11,26,14.00
2011,05,23,11,27,14.00
2011,05,23,11,28,14.00
2011,05,23,11,29,14.10
2011,05,23,11,30,14.20
2011,05,23,11,31,14.30
2011,05,23,11,32,14.50
2011,05,23,11,33,14.60
2011,05,23,11,34,14.70
2011,05,23,11,35,14.70
2011,05,23,11,36,14.80
2011,05,23,11,37,14.80
2011,05,23,11,38,14.80
2011,05,23,11,39,14.80
2011,05,23,11,40,14.70
2011,05,23,11,41,14.70
2011,05,23,11,42,14.70
2011,05,23,11,43,14.70
2011,05,23,11,44,14.60
2011,05,23,11,45,14.60
2011,05,23,11,46,14.50
2011,05,23,11,47,14.60
2011,05,23,11,48,14.50
2011,05,23,11,49,14.40
2011,05,23,11,50,14.40
2011,05,23,11,51,14.50
2011,05,23,11,52,14.60
2011,05,23,11,53,14.60
2011,05,23,11,54,14.60
2011,05,23,11,55,14.60
2011,05,23,11,56,14.80
2011,05,23,11,57,14.90
2011,05,23,11,58,14.90
2011,05,23,11,59,15.00
2011,05,23,12,00,15.10
2011,05,23,12,01,15.30
2011,05,23,12,02,15.40
2011,05,23,12,03,15.40
2011,05,23,12,04,15.40
2011,05,23,12,05,15.30
2011,05,23,12,06,15.30
2011,05,23,12,07,15.30
2011,05,23,12,08,15.40
2011,05,23,12,09,15.40
2011,05,23,12,10,15.50
2011,05,23,12,11,15.50
2011,05,23,12,12,15.60
2011,05,23,12,13,15.70
2011,05,23,12,14,15.60
2011,05,23,12,15,15.60
2011,05,23,12,16,15.60
2011,05,23,12,17,15.60
2011,05,23,12,18,15.60
2011,05,23,12,19,15.60
2011,05,23,12,20,15.50
2011,05,23,12,21,15.50
2011,05,23,12,22,15.30
2011,05,23,12,23,15.30
2011,05,23,12,24,15.30
2011,05,23,12,25,15.30
2011,05,23,12,26,15.20
2011,05,23,12,27,14.90
2011,05,23,12,28,14.80
2011,05,23,12,29,14.60
2011,05,23,12,30,14.50
2011,05,23,12,31,14.40
2011,05,23,12,32,14.30
2011,05,23,12,33,14.20
2011,05,23,12,34,14.30
2011,05,23,12,35,14.20
2011,05,23,12,36,14.30
2011,05,23,12,37,14.20
2011,05,23,12,38,14.20
2011,05,23,12,39,14.30
2011,05,23,12,40,14.30
2011,05,23,12,41,14.40
2011,05,23,12,42,14.50
2011,05,23,12,43,14.60
2011,05,23,12,44,14.60
2011,05,23,12,45,14.60
2011,05,23,12,46,14.60
2011,05,23,12,47,14.80
2011,05,23,12,48,14.90
2011,05,23,12,49,15.10
2011,05,23,12,50,15.30
2011,05,23,12,51,15.30
2011,05,23,12,52,15.20
2011,05,23,12,53,15.00
2011,05,23,12,54,14.90
2011,05,23,12,55,14.70
2011,05,23,12,56,14.50
2011,05,23,12,57,14.40
2011,05,23,12,58,14.30
2011,05,23,12,59,14.20
2011,05,23,13,00,14.20
2011,05,23,13,01,14.20
2011,05,23,13,02,14.20
2011,05,23,13,03,14.40
2011,05,23,13,04,14.50
2011,05,23,13,05,14.70
2011,05,23,13,06,14.80
2011,05,23,13,07,14.90
2011,05,23,13,08,14.90
2011,05,23,13,09,15.00
2011,05,23,13,10,15.10
2011,05,23,13,11,15.10
2011,05,23,13,12,15.10
2011,05,23,13,13,15.20
2011,05,23,13,14,15.20
2011,05,23,13,15,15.20
2011,05,23,13,16,15.20
2011,05,23,13,17,15.30
2011,05,23,13,18,15.40
2011,05,23,13,19,15.50
2011,05,23,13,20,15.60
2011,05,23,13,21,15.70
2011,05,23,13,22,15.80
2011,05,23,13,23,16.00
2011,05,23,13,24,16.10
2011,05,23,13,25,16.10
2011,05,23,13,26,16.20
2011,05,23,13,27,16.20
2011,05,23,13,28,16.00
2011,05,23,13,29,15.70
2011,05,23,13,30,15.50
2011,05,23,13,31,15.40
2011,05,23,13,32,15.40
2011,05,23,13,33,15.10
2011,05,23,13,34,15.10
2011,05,23,13,35,15.10
2011,05,23,13,36,15.10
2011,05,23,13,37,15.00
2011,05,23,13,38,14.90
2011,05,23,13,39,14.70
2011,05,23,13,40,14.70
2011,05,23,13,41,14.70
2011,05,23,13,42,14.80
2011,05,23,13,43,14.80
2011,05,23,13,44,14.80
2011,05,23,13,45,14.80
2011,05,23,13,46,14.90
2011,05,23,13,47,14.80
2011,05,23,13,48,14.80
2011,05,23,13,49,14.70
2011,05,23,13,50,14.90
2011,05,23,13,51,15.10
2011,05,23,13,52,15.20
2011,05,23,13,53,15.30
2011,05,23,13,54,15.30
2011,05,23,13,55,15.30
2011,05,23,13,56,15.10
2011,05,23,13,57,15.10
2011,05,23,13,58,15.20
2011,05,23,13,59,15.30
2011,05,23,14,00,15.30
2011,05,23,14,01,15.30
2011,05,23,14,02,15.50
2011,05,23,14,03,15.60
2011,05,23,14,04,15.50
2011,05,23,14,05,15.50
2011,05,23,14,06,15.50
2011,05,23,14,07,15.60
2011,05,23,14,08,15.60
2011,05,23,14,09,15.80
2011,05,23,14,10,16.00
2011,05,23,14,11,16.10
2011,05,23,14,12,16.00
2011,05,23,14,13,15.90
2011,05,23,14,14,16.00
2011,05,23,14,15,16.00
2011,05,23,14,16,15.80
2011,05,23,14,17,15.70
2011,05,23,14,18,15.70
2011,05,23,14,19,15.80
2011,05,23,14,20,16.00
2011,05,23,14,21,16.10
2011,05,23,14,22,16.20
2011,05,23,14,23,16.30
2011,05,23,14,24,16.50
2011,05,23,14,25,16.60
2011,05,23,14,26,16.70
2011,05,23,14,27,16.80
2011,05,23,14,28,16.90
2011,05,23,14,29,17.00
2011,05,23,14,30,17.00
2011,05,23,14,31,17.00
2011,05,23,14,32,17.00
2011,05,23,14,33,17.00
2011,05,23,14,34,17.00
2011,05,23,14,35,17.00
2011,05,23,14,36,17.00
2011,05,23,14,37,16.90
2011,05,23,14,38,16.80
2011,05,23,14,39,16.70
2011,05,23,14,40,16.60
2011,05,23,14,41,16.50
2011,05,23,14,42,16.40
2011,05,23,14,43,16.40
2011,05,23,14,44,16.30
2011,05,23,14,45,16.30
2011,05,23,14,46,16.30
2011,05,23,14,47,16.30
2011,05,23,14,48,16.30
2011,05,23,14,49,16.20
2011,05,23,14,50,16.30
2011,05,23,14,51,16.30
2011,05,23,14,52,16.30
2011,05,23,14,53,16.40
2011,05,23,14,54,16.40
2011,05,23,14,55,16.50
2011,05,23,14,56,16.50
2011,05,23,14,57,16.40
2011,05,23,14,58,16.40
2011,05,23,14,59,16.20
2011,05,23,15,00,16.10
2011,05,23,15,01,15.90
2011,05,23,15,02,15.80
2011,05,23,15,03,15.80
2011,05,23,15,04,15.80
2011,05,23,15,05,15.80
2011,05,23,15,06,15.80
2011,05,23,15,07,15.70
2011,05,23,15,08,15.70
2011,05,23,15,09,15.80
2011,05,23,15,10,15.80
2011,05,23,15,11,15.90
2011,05,23,15,12,15.90
2011,05,23,15,13,16.00
2011,05,23,15,14,16.10
2011,05,23,15,15,15.90
2011,05,23,15,16,15.80
2011,05,23,15,17,15.80
2011,05,23,15,18,15.80
2011,05,23,15,19,15.90
2011,05,23,15,20,15.90
2011,05,23,15,21,16.00
2011,05,23,15,22,16.10
2011,05,23,15,23,16.20
2011,05,23,15,24,16.30
2011,05,23,15,25,16.40
2011,05,23,15,26,16.30
2011,05,23,15,27,16.20
2011,05,23,15,28,16.10
2011,05,23,15,29,16.10
2011,05,23,15,30,16.10
2011,05,23,15,31,16.10
2011,05,23,15,32,16.10
2011,05,23,15,33,16.20
2011,05,23,15,34,16.30
2011,05,23,15,35,16.30
2011,05,23,15,36,16.30
2011,05,23,15,37,16.30
2011,05,23,15,38,16.30
2011,05,23,15,39,16.30
2011,05,23,15,40,16.30
2011,05,23,15,41,16.20
2011,05,23,15,42,15.60
2011,05,23,15,43,15.30
2011,05,23,15,44,15.10
2011,05,23,15,45,14.80
2011,05,23,15,46,14.80
2011,05,23,15,47,14.60
2011,05,23,15,48,14.50
2011,05,23,15,49,14.60
2011,05,23,15,50,14.70
2011,05,23,15,51,14.70
2011,05,23,15,52,14.70
2011,05,23,15,53,14.60
2011,05,23,15,54,14.50
2011,05,23,15,55,14.40
2011,05,23,15,56,14.50
2011,05,23,15,57,14.40
2011,05,23,15,58,14.50
2011,05,23,15,59,14.50
2011,05,23,16,00,14.50
2011,05,23,16,01,14.40
2011,05,23,16,02,14.20
2011,05,23,16,03,14.20
2011,05,23,16,04,14.20
2011,05,23,16,05,14.30
2011,05,23,16,06,14.40
2011,05,23,16,07,14.40
2011,05,23,16,08,14.50
2011,05,23,16,09,14.60
2011,05,23,16,10,14.50
2011,05,23,16,11,14.50
2011,05,23,16,12,14.50
2011,05,23,16,13,14.50
2011,05,23,16,14,14.50
2011,05,23,16,15,14.50
2011,05,23,16,16,14.50
2011,05,23,16,17,14.50
2011,05,23,16,18,14.60
2011,05,23,16,19,14.60
2011,05,23,16,20,14.60
2011,05,23,16,21,14.70
2011,05,23,16,22,14.70
2011,05,23,16,23,14.60
2011,05,23,16,24,14.50
2011,05,23,16,25,14.50
2011,05,23,16,26,14.60
2011,05,23,16,27,14.60
2011,05,23,16,28,14.70
2011,05,23,16,29,14.70
2011,05,23,16,30,14.70
2011,05,23,16,31,14.80
2011,05,23,16,32,14.80
2011,05,23,16,33,14.90
2011,05,23,16,34,15.00
2011,05,23,16,35,14.90
2011,05,23,16,36,14.90
2011,05,23,16,37,14.80
2011,05,23,16,38,14.80
2011,05,23,16,39,14.90
2011,05,23,16,40,14.90
2011,05,23,16,41,15.10
2011,05,23,16,42,15.10
2011,05,23,16,43,15.00
2011,05,23,16,44,15.10
2011,05,23,16,45,15.10
2011,05,23,16,46,15.10
2011,05,23,16,47,15.20
2011,05,23,16,48,15.30
2011,05,23,16,49,15.50
2011,05,23,16,50,15.70
2011,05,23,16,51,15.60
2011,05,23,16,52,15.70
2011,05,23,16,53,15.70
2011,05,23,16,54,15.60
2011,05,23,16,55,15.50
2011,05,23,16,56,15.50
2011,05,23,16,57,15.40
2011,05,23,16,58,15.40
2011,05,23,16,59,15.50
2011,05,23,17,00,15.50
2011,05,23,17,01,15.50
2011,05,23,17,02,15.40
2011,05,23,17,03,15.40
2011,05,23,17,04,15.50
2011,05,23,17,05,15.50
2011,05,23,17,06,15.60
2011,05,23,17,07,15.60
2011,05,23,17,08,15.70
2011,05,23,17,09,15.70
2011,05,23,17,10,15.70
2011,05,23,17,11,15.60
2011,05,23,17,12,15.60
2011,05,23,17,13,15.60
2011,05,23,17,14,15.60
2011,05,23,17,15,15.60
2011,05,23,17,16,15.60
2011,05,23,17,17,15.60
2011,05,23,17,18,15.70
2011,05,23,17,19,15.80
2011,05,23,17,20,15.80
2011,05,23,17,21,15.80
2011,05,23,17,22,15.70
2011,05,23,17,23,15.60
2011,05,23,17,24,15.40
2011,05,23,17,25,15.30
2011,05,23,17,26,15.20
2011,05,23,17,27,15.20
2011,05,23,17,28,15.10
2011,05,23,17,29,15.00
2011,05,23,17,30,14.90
2011,05,23,17,31,14.90
2011,05,23,17,32,14.90
2011,05,23,17,33,14.90
2011,05,23,17,34,14.90
2011,05,23,17,35,14.90
2011,05,23,17,36,14.90
2011,05,23,17,37,14.90
2011,05,23,17,38,14.90